Location: Deuil
(48.9767°N, 2.3272°E)
Time: 17:01:17
(UTC+00:00)

N. Korean satellite - Pass Details

Date: 25 January 2022
Orbit: 437 x 477 km, 97.3° (Epoch: 27 May)

Event Time Altitude Azimuth Distance (km) Brightness Sun altitude
Rises 06:10:49 0° 0° (N) 2,611 10.1 -12.9°
Reaches altitude 10° 06:13:14 10° 345° (NNW) 1,725 9.1 -12.5°
Maximum altitude 06:16:06 22° 295° (WNW) 1,162 7.9 -12.1°
Drops below altitude 10° 06:18:58 10° 244° (WSW) 1,715 8.9 -11.6°
Enters shadow 06:19:00 10° 244° (WSW) 1,725 8.9 -11.6°
